FW0879 Weather Reports


Display with metric or nautical units.
time (UTC)temp
F
wind
direction
speed
MPH
gust
MPH
rain 1hr
in
rain 24hr
in
rain mn
in
humidity
%
barometer
mb
20260502163903 69 128 5.0 12.0 0.00 0.01 0.01 75 1015.6
20260502163404 68 114 7.0 12.0 0.00 0.01 0.01 76 1015.5
20260502162903 68 133 7.0 13.0 0.00 0.01 0.01 78 1015.5
20260502162403 67 92 9.0 16.0 0.00 0.01 0.01 78 1015.3
20260502161904 67 87 8.0 15.0 0.00 0.01 0.01 79 1015.3
20260502161404 67 79 12.0 14.0 0.00 0.01 0.01 80 1015.5
20260502160403 68 76 10.0 14.0 0.00 0.01 0.01 79 1015.8
20260502151903 67 81 9.0 12.0 0.00 0.01 0.01 81 1016.5
20260502151404 67 82 9.0 12.0 0.00 0.01 0.01 80 1016.5
20260502150904 67 73 7.0 13.0 0.00 0.01 0.01 81 1016.5
20260502150404 67 65 8.0 16.0 0.00 0.01 0.01 81 1016.2
20260502130404 70 75 7.0 14.0 0.00 0.01 0.01 75 1017.4
20260502123404 69 75 11.0 15.0 0.00 0.01 0.01 76 1017.8
20260502122903 69 102 7.0 14.0 0.00 0.01 0.01 76 1017.8
20260502122403 68 87 10.0 14.0 0.00 0.01 0.01 77 1017.7
20260502121904 69 73 11.0 15.0 0.00 0.01 0.01 76 1017.8
20260502121404 69 86 8.0 13.0 0.00 0.01 0.01 77 1017.7
20260502120904 69 74 9.0 18.0 0.00 0.01 0.01 76 1017.6
20260502120404 69 80 9.0 17.0 0.00 0.01 0.01 75 1017.4
20260502115903 69 80 9.0 15.0 0.00 0.01 0.01 74 1017.7
20260502114904 69 97 7.0 14.0 0.00 0.01 0.01 75 1018.1
20260502114404 69 125 11.0 16.0 0.00 0.01 0.01 75 1018.1
20260502113904 69 110 7.0 14.0 0.00 0.01 0.01 75 1018.1
20260502113403 69 113 9.0 14.0 0.00 0.01 0.01 75 1018.1
20260502112904 69 126 10.0 14.0 0.00 0.01 0.01 75 1018.1
20260502112402 69 95 7.0 15.0 0.00 0.01 0.01 77 1018.0
20260502111902 69 115 9.0 15.0 0.00 0.01 0.01 76 1018.0
20260502111402 69 98 8.0 15.0 0.00 0.01 0.01 77 1018.0
20260502110402 69 99 9.0 14.0 0.00 0.01 0.01 76 1018.2
20260502105402 69 103 10.0 16.0 0.00 0.01 0.01 77 1018.1
20260502104902 69 104 10.0 13.0 0.00 0.01 0.01 78 1018.3
20260502104403 69 141 8.0 15.0 0.00 0.01 0.01 78 1018.4
20260502103903 69 132 9.0 15.0 0.00 0.01 0.01 78 1018.4
20260502102902 68 75 10.0 13.0 0.00 0.01 0.01 80 1018.4
20260502102403 69 89 6.0 15.0 0.00 0.01 0.01 79 1018.6
20260502101903 69 130 8.0 15.0 0.00 0.01 0.01 80 1018.7
20260502101402 68 78 7.0 12.0 0.00 0.01 0.01 81 1018.7
20260502100902 68 79 5.0 8.0 0.00 0.01 0.01 83 1018.7
20260502100402 68 79 9.0 13.0 0.00 0.01 0.01 83 1018.7
20260502091402 67 106 3.0 8.0 0.00 0.01 0.01 84 1018.9
20260502090902 67 92 4.0 7.0 0.00 0.01 0.01 84 1018.9
20260502071403 65 263 1.0 2.0 0.00 0.02 0.01 85 1018.9
20260502070903 65 263 1.0 2.0 0.00 0.02 0.01 85 1018.8
20260502070402 65 263 1.0 2.0 0.00 0.02 0.01 86 1018.9
20260502065902 65 263 1.0 3.0 0.00 0.02 0.01 86 1018.9
20260502065402 64 220 2.0 3.0 0.00 0.02 0.01 86 1019.0
20260502064902 64 221 2.0 3.0 0.01 0.02 0.01 86 1019.0
20260502064402 64 211 2.0 3.0 0.01 0.02 0.01 86 1019.2
20260502063903 64 259 1.0 3.0 0.01 0.02 0.01 87 1019.1
20260502063402 64 212 1.0 3.0 0.01 0.02 0.01 87 1019.0
20260502062402 64 256 1.0 3.0 0.01 0.02 0.01 88 1019.0
20260502061902 64 202 1.0 3.0 0.01 0.02 0.01 88 1018.9
20260502060902 64 206 2.0 3.0 0.01 0.02 0.01 87 1018.8
20260502060403 64 200 1.0 3.0 0.01 0.02 0.01 88 1018.8
20260502055902 64 200 1.0 3.0 0.01 0.02 0.01 88 1018.8
20260502054902 64 185 1.0 6.0 0.00 0.01 0.00 88 1018.8
20260502054403 64 163 4.0 7.0 0.00 0.01 0.00 88 1018.8
20260502053902 64 117 3.0 6.0 0.00 0.01 0.00 89 1018.8
20260502053402 64 263 0.0 0.0 0.00 0.01 0.00 87 1018.6
20260502052903 64 263 1.0 2.0 0.00 0.01 0.00 88 1018.5
20260502052403 64 263 1.0 3.0 0.00 0.01 0.00 88 1018.4
20260502051903 64 226 2.0 5.0 0.00 0.01 0.00 88 1018.4
20260502051402 64 196 2.0 3.0 0.00 0.01 0.00 87 1018.4
20260502050903 64 232 2.0 3.0 0.00 0.01 0.00 87 1018.5
20260502045902 64 233 3.0 5.0 0.00 0.01 0.00 87 1018.6
20260502045402 64 239 3.0 5.0 0.00 0.01 0.00 88 1018.6
20260502044902 64 252 3.0 5.0 0.00 0.01 0.00 88 1018.5
20260502044403 64 222 2.0 3.0 0.00 0.01 0.00 88 1018.7
20260502043902 64 254 2.0 3.0 0.00 0.01 0.00 88 1018.7
20260502042902 64 252 3.0 3.0 0.00 0.01 0.00 88 1018.7
20260502041903 64 260 3.0 6.0 0.00 0.01 0.00 88 1018.8
20260502041402 64 256 3.0 6.0 0.00 0.01 0.00 88 1018.8
20260502040903 64 258 2.0 3.0 0.00 0.01 0.00 87 1018.8
20260502040403 64 262 3.0 5.0 0.00 0.01 0.00 87 1018.8
20260502035902 64 248 3.0 5.0 0.00 0.01 0.00 87 1018.9
20260502035403 64 221 2.0 5.0 0.00 0.01 0.00 87 1018.9
20260502034902 64 251 3.0 5.0 0.00 0.01 0.00 87 1018.9
20260502034402 64 252 3.0 6.0 0.00 0.01 0.00 87 1018.9
20260502033902 64 244 2.0 3.0 0.00 0.01 0.00 87 1018.9
20260502033403 64 241 2.0 3.0 0.00 0.01 0.00 87 1018.9
20260502032902 64 247 1.0 3.0 0.00 0.01 0.00 87 1018.9
20260502032403 64 250 3.0 3.0 0.00 0.01 0.00 87 1018.9
20260502031902 64 250 1.0 3.0 0.00 0.01 0.00 87 1018.8
20260502031402 64 252 1.0 3.0 0.00 0.01 0.00 87 1018.8
20260502030903 64 214 2.0 3.0 0.00 0.01 0.00 87 1018.7
20260502030402 64 241 1.0 3.0 0.00 0.01 0.00 87 1018.8
20260502025902 64 211 3.0 5.0 0.00 0.01 0.00 87 1018.8
20260502024902 64 218 2.0 3.0 0.00 0.01 0.00 87 1018.8
20260502024403 64 242 2.0 5.0 0.00 0.01 0.00 87 1018.9
20260502023902 64 238 2.0 3.0 0.00 0.01 0.00 86 1018.9
20260502023403 64 240 2.0 3.0 0.00 0.01 0.00 86 1018.9
20260502022902 64 269 0.0 2.0 0.00 0.01 0.00 86 1018.9
20260502022403 64 269 1.0 3.0 0.00 0.01 0.00 86 1019.1
20260502021903 64 251 2.0 5.0 0.00 0.01 0.00 86 1019.1
20260502020402 64 240 2.0 3.0 0.00 0.01 0.00 84 1019.1
20260502015903 64 191 0.0 3.0 0.00 0.01 0.00 85 1019.2
20260502015402 64 208 3.0 5.0 0.00 0.01 0.00 85 1019.2
20260502014902 64 201 2.0 5.0 0.00 0.01 0.00 85 1019.3
20260502014402 64 196 2.0 5.0 0.00 0.01 0.00 85 1019.3
20260502013903 64 252 2.0 3.0 0.00 0.01 0.00 85 1019.3
20260502013402 64 245 2.0 3.0 0.00 0.01 0.00 85 1019.2
20260502012902 64 241 3.0 5.0 0.00 0.01 0.00 85 1019.3
20260502012403 64 235 2.0 5.0 0.00 0.01 0.00 85 1019.4
20260502011902 64 250 1.0 3.0 0.00 0.01 0.00 85 1019.5
20260502011402 64 226 3.0 3.0 0.00 0.01 0.00 85 1019.5
20260502010902 64 241 3.0 6.0 0.00 0.01 0.00 85 1019.5
20260502010402 64 231 3.0 5.0 0.00 0.01 0.00 85 1019.6
20260502004902 64 209 2.0 3.0 0.00 0.01 0.00 84 1019.5
20260502004402 64 241 2.0 3.0 0.00 0.01 0.00 84 1019.6
20260502003902 64 232 2.0 3.0 0.00 0.01 0.00 84 1019.6
20260502002902 64 242 0.0 0.0 0.00 0.01 0.00 84 1019.7
20260502002402 64 242 0.0 1.0 0.00 0.01 0.00 84 1019.7
20260502001403 64 240 2.0 3.0 0.00 0.01 0.00 85 1019.9
20260502000902 64 241 0.0 2.0 0.00 0.01 0.00 85 1020.0
20260502000403 64 278 1.0 2.0 0.00 0.01 0.00 85 1020.1
20260501235903 64 278 1.0 3.0 0.00 0.01 0.00 85 1020.1
20260501235402 64 255 2.0 5.0 0.00 0.01 0.00 85 1020.2
20260501234902 64 277 2.0 5.0 0.00 0.01 0.00 85 1020.3
20260501234402 64 261 3.0 6.0 0.00 0.01 0.00 85 1020.3
20260501233903 64 249 3.0 5.0 0.00 0.01 0.00 85 1020.3
20260501232903 64 258 3.0 3.0 0.00 0.01 0.00 85 1020.3
20260501232403 64 268 2.0 3.0 0.00 0.01 0.00 85 1020.3
20260501231403 64 236 2.0 3.0 0.00 0.01 0.00 85 1020.4
20260501230903 64 239 3.0 5.0 0.00 0.01 0.00 85 1020.4
20260501230403 64 237 2.0 3.0 0.00 0.01 0.00 85 1020.3
20260501225903 64 245 2.0 3.0 0.00 0.01 0.00 84 1020.3
20260501225402 64 266 1.0 3.0 0.00 0.01 0.00 84 1020.3
20260501224903 64 246 1.0 3.0 0.00 0.01 0.00 84 1020.3
20260501224403 65 246 1.0 3.0 0.00 0.01 0.00 84 1020.3
20260501223902 65 245 1.0 3.0 0.00 0.01 0.00 84 1020.3
20260501222902 65 243 2.0 3.0 0.00 0.01 0.00 83 1020.3
20260501222403 65 271 1.0 2.0 0.00 0.01 0.00 83 1020.4
20260501221903 65 271 1.0 2.0 0.00 0.01 0.00 82 1020.4
20260501220903 65 320 2.0 5.0 0.00 0.01 0.00 82 1020.4
20260501220403 65 336 5.0 6.0 0.00 0.01 0.00 83 1020.5
20260501215902 65 340 4.0 7.0 0.00 0.01 0.01 82 1020.6
20260501215403 65 353 5.0 7.0 0.00 0.01 0.01 82 1020.7
20260501214902 65 352 4.0 6.0 0.00 0.01 0.01 82 1020.7
20260501214403 65 25 5.0 7.0 0.00 0.01 0.01 82 1020.7
20260501213902 65 350 6.0 9.0 0.00 0.01 0.01 82 1020.7
20260501213403 65 2 5.0 7.0 0.00 0.01 0.01 82 1020.7
20260501212903 65 2 5.0 7.0 0.00 0.01 0.01 82 1020.8
20260501212403 65 349 5.0 7.0 0.00 0.01 0.01 82 1020.9
20260501211403 65 341 3.0 7.0 0.00 0.01 0.01 82 1021.1
20260501210903 65 335 5.0 8.0 0.00 0.01 0.01 82 1021.1
20260501210403 65 345 5.0 6.0 0.00 0.01 0.01 83 1021.1
20260501205902 66 348 6.0 7.0 0.00 0.01 0.01 83 1021.1
20260501205403 66 353 5.0 8.0 0.00 0.01 0.01 83 1021.0
20260501204403 65 4 5.0 10.0 0.00 0.01 0.01 82 1020.8
20260501203903 66 348 6.0 9.0 0.00 0.01 0.01 82 1020.8
20260501203402 66 355 5.0 8.0 0.00 0.01 0.01 83 1020.7
20260501202903 66 18 5.0 7.0 0.00 0.01 0.01 83 1020.5
20260501202402 66 28 4.0 7.0 0.00 0.01 0.01 83 1020.5
20260501201903 65 37 3.0 7.0 0.00 0.01 0.01 83 1020.4
20260501201403 66 349 6.0 8.0 0.00 0.01 0.01 83 1020.3
20260501200402 66 359 5.0 6.0 0.00 0.01 0.01 83 1020.2
20260501195903 66 353 5.0 8.0 0.00 0.01 0.01 83 1020.2
20260501195403 65 8 4.0 7.0 0.00 0.01 0.01 83 1020.1
20260501194903 65 355 5.0 6.0 0.00 0.01 0.01 83 1019.9
20260501194403 66 350 6.0 8.0 0.00 0.01 0.01 82 1019.9
20260501193403 66 345 3.0 6.0 0.00 0.01 0.01 82 1019.9
20260501192903 66 27 3.0 5.0 0.00 0.01 0.01 82 1019.9
20260501192403 66 36 3.0 6.0 0.00 0.01 0.01 82 1019.8
20260501191903 66 1 5.0 8.0 0.00 0.01 0.01 82 1019.8
20260501191403 66 18 6.0 9.0 0.00 0.01 0.01 82 1019.8
20260501190903 66 9 6.0 9.0 0.00 0.01 0.01 82 1019.7
20260501190403 66 6 5.0 8.0 0.00 0.01 0.01 81 1019.8
20260501185903 66 15 4.0 7.0 0.00 0.01 0.01 81 1019.8
20260501184902 66 22 5.0 8.0 0.00 0.01 0.01 81 1019.8
20260501184403 66 358 4.0 8.0 0.00 0.01 0.01 81 1019.8
20260501183903 66 11 5.0 8.0 0.00 0.01 0.01 81 1019.7
20260501183403 66 6 7.0 9.0 0.00 0.01 0.01 81 1019.7
20260501182903 66 4 6.0 8.0 0.00 0.01 0.01 81 1019.6
20260501182403 66 32 6.0 8.0 0.00 0.01 0.01 81 1019.4
20260501181903 66 14 5.0 8.0 0.00 0.01 0.01 81 1019.3
20260501181402 66 357 5.0 7.0 0.00 0.01 0.01 81 1019.3
20260501180903 66 19 5.0 10.0 0.00 0.01 0.01 81 1019.2
20260501180402 66 38 4.0 7.0 0.00 0.01 0.01 81 1019.3
20260501175902 66 18 7.0 10.0 0.00 0.01 0.01 81 1019.2
20260501174902 66 343 6.0 10.0 0.00 0.01 0.01 81 1019.1
20260501174403 66 24 6.0 12.0 0.00 0.01 0.01 81 1019.1
20260501173402 66 354 9.0 12.0 0.00 0.01 0.01 81 1018.9
20260501172903 67 26 8.0 12.0 0.00 0.01 0.01 81 1019.0
20260501171903 67 350 4.0 12.0 0.00 0.01 0.01 81 1018.9
20260501171403 66 349 7.0 12.0 0.00 0.01 0.01 81 1018.8
20260501170902 66 2 9.0 13.0 0.00 0.01 0.01 81 1018.8
20260501170402 67 4 10.0 13.0 0.00 0.01 0.01 80 1019.0
20260501165903 67 1 10.0 13.0 0.00 0.01 0.01 80 1019.1
20260501165403 67 0 10.0 13.0 0.00 0.01 0.01 80 1019.1
20260501164903 67 18 8.0 13.0 0.00 0.01 0.01 80 1019.1